Weather History for KDMN - July, 2013

Change the Weather History Date:

Monday, July 8, 2013

  Actual Average Record
Temperature  
Mean Temperature 86 °F 81 °F  
Max Temperature 99 °F 97 °F 110 °F (1951)
Min Temperature 73 °F 65 °F 54 °F (1987)
Cooling Degree Days 20    
Growing Degree Days 36 (Base 50)    
Moisture  
Dew Point 54 °F    
Average Humidity 41    
Maximum Humidity 61    
Minimum Humidity 20    
Precipitation  
Precipitation 0.00 in 0.07 in 1.05 in (2006)
Month to date precipitation 0.27 0.45  
Year to date precipitation 0.78 3.56  
Sea Level Pressure  
Sea Level Pressure 29.85 in    
Wind  
Wind Speed 11 mph (NNW)    
Max Wind Speed 20 mph    
Max Gust Speed 24 mph    
Visibility 10 miles    
Events Thunderstorm    
T = Trace of Precipitation, MM = Missing Value Source: NWS Daily Summary

Daily Weather History Graph

Daily Weather History Graph

Search for Another Location

Airport or City:

Trip Planner

Search our weather history database for the weather conditions in past years. The results will help you decide how hot, cold, wet, or windy it might be!

Date:

Astronomy

Jul. 08, 2013 Rise Set
Actual Time 6:11 AM MDT 8:20 PM MDT
Civil Twilight 5:43 AM MDT 8:48 PM MDT
Nautical Twilight 5:08 AM MDT 9:22 PM MDT
Astronomical Twilight 4:32 AM MDT 9:59 PM MDT
Moon 6:37 AM MDT (7/8) 8:31 PM MDT (7/8)
Length of Visible Light 15h 05m
Length of Day
14h 09m
New Moon, 0% of the Moon is Illuminated
Jul 8
New Moon
Jul 15
First Quarter
Jul 22
Full
Jul 29
Last Quarter
Aug 6
New

Hourly Weather History & Observations

Time (MDT) Temp. Heat Index Dew Point Humidity Pressure Visibility Wind Dir Wind Speed Gust Speed Precip Events Conditions
12:14 AM 78.8 °F - 55.4 °F 44% 30.06 in 10.0 mi NW 13.8 mph - N/A   Partly Cloudy
12:53 AM 79.0 °F - 55.9 °F 45% 29.81 in 10.0 mi WNW 11.5 mph 20.7 mph N/A   Partly Cloudy
1:53 AM 78.1 °F - 57.0 °F 48% 29.81 in 10.0 mi West 12.7 mph - N/A   Partly Cloudy
2:53 AM 75.9 °F - 57.9 °F 54% 29.83 in 10.0 mi SW 9.2 mph - N/A   Mostly Cloudy
3:53 AM 75.9 °F - 57.9 °F 54% 29.83 in 10.0 mi West 10.4 mph - N/A   Partly Cloudy
4:53 AM 75.0 °F - 57.9 °F 55% 29.83 in 10.0 mi West 4.6 mph - N/A   Partly Cloudy
5:53 AM 73.9 °F - 59.0 °F 59% 29.83 in 10.0 mi West 10.4 mph - N/A   Clear
6:53 AM 75.0 °F - 57.0 °F 53% 29.84 in 10.0 mi NW 5.8 mph - N/A   Scattered Clouds
7:53 AM 82.0 °F 81.2 °F 53.1 °F 37% 29.83 in 10.0 mi NNW 12.7 mph 19.6 mph N/A   Partly Cloudy
8:53 AM 82.9 °F 82.0 °F 55.0 °F 38% 29.85 in 10.0 mi NE 4.6 mph - N/A   Clear
9:53 AM 89.1 °F 86.7 °F 53.1 °F 29% 29.83 in 10.0 mi ENE 17.3 mph 24.2 mph N/A   Clear
10:53 AM 89.1 °F 86.7 °F 53.1 °F 29% 29.84 in 10.0 mi East 15.0 mph - N/A   Clear
11:53 AM 93.0 °F - 52.0 °F 25% 29.85 in 10.0 mi East 16.1 mph 24.2 mph N/A   Clear
12:53 PM 93.9 °F - 51.1 °F 23% 29.83 in 10.0 mi ESE 11.5 mph 24.2 mph N/A   Clear
1:53 PM 95.0 °F - 51.1 °F 22% 29.81 in 10.0 mi SSE 15.0 mph 21.9 mph N/A   Clear
2:53 PM 96.1 °F - 48.9 °F 20% 29.79 in 10.0 mi SE 13.8 mph 20.7 mph N/A   Clear
3:53 PM 98.1 °F - 50.0 °F 20% 29.77 in 10.0 mi South 10.4 mph - N/A   Partly Cloudy
4:53 PM 96.1 °F - 48.9 °F 20% 29.77 in 10.0 mi Calm Calm - N/A   Scattered Clouds
5:16 PM 91.4 °F 89.1 °F 53.6 °F 28% 30.04 in 10.0 mi NW 16.1 mph 29.9 mph N/A   Mostly Cloudy
5:23 PM 91.4 °F 89.1 °F 53.6 °F 28% 30.03 in 10.0 mi NW 19.6 mph 26.5 mph N/A Thunderstorm Mostly Cloudy
5:53 PM 91.9 °F - 52.0 °F 26% 29.78 in 10.0 mi NW 16.1 mph 26.5 mph N/A Thunderstorm Thunderstorm
6:31 PM 91.4 °F - 51.8 °F 26% 30.04 in 10.0 mi NNW 15.0 mph 23.0 mph N/A   Partly Cloudy
6:53 PM 90.0 °F - 51.1 °F 26% 29.78 in 10.0 mi NNW 12.7 mph - N/A   Clear
7:53 PM 88.0 °F 85.9 °F 54.0 °F 31% 29.78 in 10.0 mi NNW 15.0 mph 19.6 mph N/A   Clear
9:53 PM 81.0 °F 81.0 °F 57.0 °F 44% 29.83 in 10.0 mi ENE 9.2 mph - N/A   Clear
10:53 PM 79.0 °F - 57.0 °F 47% 29.85 in 10.0 mi ENE 10.4 mph - N/A   Clear
11:53 PM 78.1 °F - 57.0 °F 48% 29.86 in 10.0 mi ENE 11.5 mph - N/A   Clear